Theta_e
314 313 314 314 316 320 320 320 323 325 327 327 327 323 317 318 319 319 322 321 320 321 318 318 319 318 319 319 319 318 318 321 321 323 322 322 320 318 319 317 319 319 320 320 320 324 326 331 332 332 332 331 333 334 336 336 333 330 330 328 322 319 318 318 319 320 319 320 319 319 318 318 319 318 317 317 317 316 317 321 324 328 333 333 334 335 334 333 330 328 325 325 324 323 323 324 324
313 313 314 314 319 323 320 321 328 335 332 320 320 319 316 319 320 322 325 323 322 320 318 319 319 319 319 319 319 319 319 320 319 320 320 321 320 320 320 318 318 318 320 320 320 321 323 328 330 331 331 332 333 335 336 335 333 330 330 328 323 318 318 319 319 320 320 320 320 320 320 321 323 323 323 323 322 321 324 326 326 329 331 332 333 333 331 329 327 325 324 324 323 323 322 323 324
313 313 314 316 321 321 324 323 328 338 330 317 321 324 318 317 321 323 322 322 320 318 319 318 319 320 319 320 319 319 320 319 320 319 319 321 320 320 319 318 318 319 319 319 320 321 322 325 327 330 330 331 333 336 337 335 331 329 330 329 324 319 318 319 320 320 320 321 320 320 320 322 326 328 329 329 329 329 330 329 328 329 330 330 331 329 327 326 325 323 322 321 320 320 319 319 319
314 314 316 319 321 322 334 334 336 340 327 320 321 323 322 320 325 323 318 318 318 318 319 318 319 320 320 321 319 319 320 320 320 320 320 320 319 319 317 317 317 318 319 319 320 320 321 323 325 328 329 329 331 334 335 334 329 329 330 329 326 320 319 319 320 320 320 321 320 321 321 324 330 332 331 331 332 331 331 329 329 330 329 329 327 323 321 320 319 317 315 315 315 315 315 315 314
316 319 318 319 321 321 332 331 332 333 324 325 319 319 328 326 326 321 317 317 318 318 318 318 319 319 320 320 320 320 320 321 321 320 321 319 318 317 316 317 317 317 318 319 319 320 320 322 324 326 328 328 330 333 333 331 328 328 328 328 327 322 320 319 320 320 321 321 321 324 325 329 333 333 332 330 330 328 328 327 327 328 327 326 322 319 317 316 314 312 311 311 311 311 311 311 311
320 322 319 320 320 318 327 325 324 328 327 330 320 323 331 323 319 317 316 318 318 319 319 318 319 319 319 319 320 320 320 321 321 320 320 319 318 316 316 316 316 317 317 319 319 319 320 321 323 324 327 327 329 331 330 329 328 328 327 328 327 324 322 320 321 321 322 321 322 326 327 331 333 334 332 328 326 324 324 323 324 324 322 321 319 317 315 314 313 311 310 311 311 310 310 310 310
321 322 319 321 320 319 332 327 326 332 324 322 320 322 322 316 314 314 317 318 319 319 319 319 318 319 319 319 320 320 320 320 321 320 320 318 317 316 316 316 316 316 316 317 319 319 320 320 322 323 325 326 327 329 329 328 328 328 327 327 327 327 324 321 322 321 322 321 323 326 326 330 333 334 332 328 324 322 323 323 323 322 321 320 319 318 316 314 312 311 310 310 310 310 310 310 309
320 320 318 327 329 328 336 326 329 332 318 315 317 316 315 315 314 316 318 317 318 319 318 319 318 320 319 318 319 320 319 319 320 320 320 318 317 316 316 316 315 316 316 316 317 319 320 320 321 322 324 326 327 327 327 327 328 328 327 327 327 327 326 324 322 321 322 321 324 325 324 330 332 332 332 330 327 323 324 325 325 325 323 323 322 321 317 313 312 310 310 310 309 309 309 308 307
319 320 318 325 330 333 338 327 325 325 322 319 314 315 315 316 316 316 319 317 317 317 318 319 318 320 319 317 319 319 319 319 319 320 319 317 317 316 316 316 315 315 316 316 316 317 319 320 321 322 323 324 326 326 327 327 327 328 327 327 326 327 327 326 323 321 322 322 323 323 323 329 332 332 330 330 329 325 325 325 325 324 324 323 321 318 315 312 311 310 310 309 308 308 307 305 305
319 320 318 325 330 330 331 326 324 322 324 318 312 316 316 316 316 315 318 317 317 316 317 319 319 319 318 319 319 319 319 319 319 320 318 317 317 316 317 316 316 315 315 316 315 316 318 320 320 322 323 324 324 325 327 327 327 327 327 327 326 326 326 327 325 321 321 322 324 322 322 329 333 332 330 329 329 327 324 324 323 322 320 318 315 313 312 311 310 310 309 308 307 306 305 304 304
320 319 319 331 334 324 322 324 328 327 324 316 314 317 316 317 316 316 316 316 317 315 316 318 319 319 318 318 319 319 318 318 319 320 318 317 316 316 317 316 316 316 315 315 315 315 316 318 320 321 322 324 324 324 326 327 327 326 326 326 326 326 326 327 326 322 322 323 325 323 321 326 332 333 331 328 327 327 325 324 323 321 317 313 312 311 310 310 310 309 308 307 306 305 304 304 304
319 321 331 341 330 321 323 326 328 330 330 322 318 317 316 317 316 317 316 315 316 315 316 317 318 318 318 317 318 318 317 318 319 320 319 317 316 316 316 317 317 316 315 315 315 315 315 316 319 320 322 323 324 324 325 326 326 326 326 326 325 325 325 325 326 324 323 324 325 324 322 324 329 332 333 329 326 327 325 324 323 320 316 313 311 310 309 309 309 308 308 306 305 304 304 304 304
319 322 333 331 323 323 322 323 327 330 331 321 317 316 315 315 316 316 316 315 314 315 317 317 318 318 318 317 317 317 317 317 318 319 319 318 317 317 317 316 316 317 316 315 315 315 315 315 316 319 321 322 323 324 325 326 326 326 326 326 326 325 325 324 325 325 324 325 325 325 323 323 326 331 332 329 326 326 325 324 322 321 317 313 312 310 309 309 309 308 307 305 304 304 304 305 305
319 320 325 321 319 326 321 321 325 324 322 318 316 315 316 316 316 316 315 316 315 316 317 317 317 317 317 316 316 316 317 316 316 317 317 318 318 317 317 316 316 316 316 315 315 315 315 315 315 317 320 322 323 324 326 327 327 326 327 327 327 326 325 324 323 325 325 325 326 325 325 323 324 328 331 329 326 326 325 324 323 322 317 314 313 310 309 308 308 307 305 304 304 304 304 305 306
318 319 326 325 321 325 322 320 321 321 320 318 317 314 316 316 316 316 315 316 317 316 316 317 317 316 316 315 315 316 315 315 315 316 316 317 317 317 317 316 317 316 316 316 315 315 315 315 315 316 318 321 323 324 326 328 328 327 327 328 328 327 326 324 323 325 325 325 326 326 325 324 324 325 328 328 326 325 324 323 323 321 317 315 314 311 308 308 308 306 304 304 304 304 304 306 307
317 317 325 324 318 320 320 319 319 321 320 316 315 315 315 316 316 316 316 316 316 317 316 317 316 316 316 315 316 315 316 316 315 316 315 316 317 317 317 316 316 316 317 316 315 315 315 315 315 316 317 319 322 323 325 326 328 329 329 329 328 328 327 326 324 324 325 326 326 326 325 325 324 324 326 326 324 324 323 322 322 320 317 315 315 312 309 308 308 306 303 303 303 304 305 307 308
315 319 326 323 320 319 320 322 319 319 321 316 315 315 315 316 316 315 316 316 316 316 316 316 315 315 315 315 316 315 316 315 315 315 315 315 316 317 317 316 316 316 317 316 316 316 315 315 315 315 316 317 319 322 324 325 326 329 330 330 330 329 328 328 326 325 326 325 325 325 326 325 325 324 325 324 322 322 323 322 320 319 317 316 316 313 310 308 308 306 303 303 303 304 306 307 308
318 326 324 320 326 324 323 327 318 315 319 315 314 314 314 315 315 315 315 315 315 315 315 315 315 315 315 315 315 315 315 315 315 315 315 315 315 316 317 316 316 317 317 316 316 316 316 316 315 315 315 316 318 320 323 325 326 328 329 330 330 330 330 330 329 327 326 326 324 324 325 326 326 325 324 324 323 322 322 321 319 318 318 317 317 314 311 308 307 306 303 303 303 304 306 307 308
322 326 320 324 333 323 318 321 315 314 316 314 314 314 313 314 314 314 315 314 314 314 315 315 315 315 315 315 315 315 314 315 315 314 315 315 315 316 316 316 316 316 316 317 317 317 316 316 315 315 315 315 316 318 320 323 325 327 328 329 330 330 331 331 330 330 328 326 325 324 324 325 326 326 326 325 325 324 324 322 319 320 319 318 317 315 312 309 307 306 303 303 303 303 305 307 308
318 319 322 332 327 315 314 315 314 315 315 313 313 313 313 314 314 314 314 314 314 315 315 314 314 315 315 315 315 315 315 315 314 314 315 315 315 315 315 316 316 316 316 316 317 317 317 316 315 314 315 315 315 316 318 320 323 325 327 329 330 329 329 329 330 331 330 328 326 325 324 325 326 327 326 326 326 326 326 324 321 321 320 318 318 316 313 310 308 306 304 303 303 303 305 307 308
316 317 326 328 315 314 318 315 316 316 314 313 313 313 313 315 315 314 314 315 316 315 315 314 314 315 315 316 315 315 315 314 315 314 315 315 315 315 315 315 315 316 316 316 317 316 317 316 315 315 315 315 315 315 316 317 319 322 325 328 329 329 329 329 329 330 330 329 327 326 325 326 327 327 327 326 326 326 327 325 323 321 321 320 319 317 315 312 309 307 304 303 302 303 304 307 307
317 318 320 318 313 316 318 315 317 316 314 314 312 313 314 315 315 314 314 315 316 315 316 316 314 315 315 315 315 315 314 314 314 314 314 314 314 315 314 315 315 315 316 316 316 316 316 316 315 315 314 315 316 316 316 317 318 319 321 324 328 330 330 329 329 329 329 329 328 327 326 327 327 327 327 327 326 326 327 326 324 323 323 323 320 318 316 313 310 308 306 303 302 302 303 306 307
318 319 316 316 315 315 317 317 317 316 315 313 313 314 313 313 313 314 313 314 315 316 316 315 315 315 314 315 314 314 314 315 315 314 314 314 314 315 314 315 315 315 315 316 316 316 316 316 316 315 315 315 316 316 317 317 318 319 319 320 324 328 331 330 329 330 329 329 329 328 327 327 327 326 326 327 327 326 327 326 325 325 325 324 321 319 317 314 312 309 307 304 302 302 302 304 307
318 320 316 315 316 314 316 315 315 315 314 314 314 313 311 312 313 314 313 314 315 315 316 316 315 314 314 315 314 315 316 316 316 315 315 315 315 315 315 315 314 314 315 315 315 316 316 317 316 315 315 315 315 316 317 318 318 319 319 320 321 323 328 330 329 329 330 331 329 329 329 328 328 327 325 326 327 326 326 326 326 326 326 325 323 321 319 316 314 311 309 306 302 301 302 303 305
317 319 315 313 314 314 314 314 314 314 313 314 313 311 311 312 313 311 313 316 316 316 316 316 316 315 313 314 315 315 316 316 316 316 316 315 315 314 315 315 315 315 315 315 315 315 316 316 316 316 316 315 316 316 317 318 318 319 320 320 320 320 323 327 329 328 328 331 332 331 330 329 329 327 326 326 327 326 326 326 327 327 326 325 324 322 321 319 317 314 311 308 304 301 301 302 304
315 315 313 312 313 313 313 314 314 314 313 313 312 311 312 312 312 312 315 317 316 316 316 316 316 315 314 314 314 315 315 315 316 316 316 315 315 314 314 314 315 315 315 315 315 315 315 316 316 316 316 316 316 317 317 318 319 319 320 320 320 321 321 324 328 329 328 328 331 332 331 330 329 327 327 327 327 327 327 327 327 327 326 325 325 323 322 321 319 318 315 311 307 303 301 301 302
313 312 312 312 312 313 313 313 313 313 312 312 312 313 312 311 312 315 317 317 315 316 315 315 315 314 314 314 314 314 314 315 315 315 315 314 314 314 315 315 315 315 315 315 315 315 315 315 316 316 316 317 317 318 318 319 319 319 320 320 321 321 321 322 325 329 331 329 329 330 329 328 328 328 328 328 327 328 328 328 327 327 326 325 324 323 323 322 321 320 318 314 310 305 301 300 301
312 312 313 312 311 312 313 312 313 312 313 312 312 312 311 310 312 316 317 316 315 315 315 314 313 313 313 313 314 314 314 314 315 314 314 314 314 314 314 315 315 315 315 315 315 315 315 315 316 316 316 316 317 318 319 319 320 320 321 321 321 321 321 323 324 326 330 331 329 328 327 327 327 328 329 329 328 328 329 328 328 327 326 325 324 323 323 322 321 320 319 316 312 308 302 300 300
312 312 314 315 313 314 314 312 312 311 313 313 312 315 317 315 315 318 317 316 316 315 315 313 312 312 312 313 313 314 314 314 314 314 313 313 313 313 314 314 314 314 315 315 315 315 315 315 315 316 316 316 317 319 320 321 321 321 322 321 322 322 322 324 326 326 328 330 329 327 326 326 326 327 328 329 329 328 328 328 327 326 325 324 324 323 323 322 321 320 318 316 313 310 306 301 300
314 312 312 315 316 319 315 311 311 311 313 313 312 317 325 323 317 317 317 315 315 316 314 312 311 312 312 313 313 313 313 313 313 313 312 312 312 313 313 314 314 315 315 315 315 315 315 315 315 316 316 316 317 319 322 323 323 323 322 323 322 323 324 325 325 325 325 327 327 326 325 326 326 326 326 326 326 326 327 328 327 325 324 324 324 324 324 323 322 320 319 317 315 312 308 303 300
315 311 313 316 315 323 320 310 311 313 313 312 312 317 323 324 316 315 317 314 314 314 312 311 311 312 312 312 312 312 312 312 312 311 311 311 311 312 312 313 314 315 316 315 316 316 315 316 316 316 316 315 316 319 322 324 325 325 324 324 324 324 325 326 327 325 326 326 327 328 327 326 325 324 324 324 324 324 327 328 326 324 324 324 324 324 324 323 323 321 320 320 318 315 311 306 302
321 313 320 323 315 322 322 310 310 315 314 310 312 318 320 319 315 315 316 313 313 312 311 311 311 312 312 311 311 311 311 311 311 311 311 311 311 312 312 312 313 314 315 315 315 315 315 315 315 315 315 315 316 318 322 325 325 325 325 325 325 326 326 327 328 328 329 328 326 326 327 325 325 325 324 325 325 325 325 325 324 324 324 324 324 324 323 323 323 322 321 321 320 318 316 312 309
325 315 319 326 318 318 319 313 310 311 313 311 311 317 319 317 314 315 316 312 313 313 312 311 311 311 310 310 310 310 310 310 310 311 311 311 311 311 311 312 312 313 313 314 314 314 314 315 315 314 314 315 316 318 322 325 326 326 326 326 325 325 326 326 327 327 327 327 326 326 325 325 324 324 324 323 324 324 324 324 324 324 324 324 324 323 323 322 322 322 322 321 320 319 318 318 316
325 318 316 321 318 315 317 318 313 309 312 313 312 313 316 316 313 314 315 311 312 312 311 310 310 310 309 309 309 309 309 310 310 310 310 310 310 310 311 311 311 312 312 313 314 314 314 315 315 315 315 316 316 318 321 324 325 326 325 325 325 325 325 326 326 326 326 326 326 325 325 325 324 324 324 324 324 324 324 325 325 324 324 323 323 322 322 322 322 321 321 320 319 318 318 318 318
325 322 318 320 319 315 316 318 315 313 315 315 315 315 316 317 313 312 312 311 312 310 309 309 308 307 307 307 307 308 308 308 308 308 308 309 309 309 310 310 311 311 312 313 313 313 314 314 314 315 315 316 316 318 320 321 323 324 325 325 325 326 326 325 325 326 326 325 325 325 325 326 325 326 326 326 326 325 325 325 325 325 324 324 323 323 322 322 321 321 321 320 318 317 317 317 317
322 321 319 320 319 317 316 315 313 312 314 315 315 315 316 317 316 312 310 311 310 308 308 307 306 306 306 306 306 306 306 306 305 306 307 308 308 309 309 310 310 311 311 312 312 312 312 312 312 313 313 314 315 316 317 319 320 322 323 323 324 324 324 324 324 324 324 324 324 325 325 325 325 325 325 325 325 324 324 324 324 324 324 324 323 322 322 321 321 321 321 319 317 317 317 317 317
316 315 317 317 317 317 314 314 313 310 313 318 317 316 317 318 317 311 308 311 309 306 307 305 304 304 304 304 304 304 304 304 304 305 306 307 307 308 309 309 310 310 310 310 311 310 310 310 310 310 310 311 312 314 315 316 318 320 321 322 322 322 322 322 322 322 322 322 322 323 323 323 323 323 322 322 322 322 322 322 322 322 322 322 321 321 320 320 320 319 318 317 316 317 317 316 316
313 313 315 316 315 315 313 314 314 310 313 319 318 316 318 318 315 309 306 309 307 305 305 304 303 303 302 303 302 303 303 303 304 304 305 306 307 308 308 309 309 309 308 308 308 308 308 308 308 308 308 309 309 310 311 312 313 315 316 317 318 319 320 320 320 320 320 320 321 321 321 321 321 320 320 320 320 320 320 320 320 320 320 320 319 319 319 318 317 317 316 316 316 316 316 316 315
312 313 313 315 316 316 317 317 316 313 314 320 320 316 319 317 312 307 305 306 305 304 305 303 303 302 302 302 301 302 302 303 303 304 304 306 306 307 307 307 307 307 307 307 308 308 308 308 308 308 308 308 308 308 309 309 309 310 310 311 312 313 314 315 316 316 317 317 317 318 318 318 318 318 318 318 318 318 318 318 318 318 318 318 318 317 317 316 315 315 315 315 315 315 314 314 314
314 315 314 316 316 316 321 321 318 316 313 318 319 315 318 316 310 307 305 304 304 303 303 302 302 302 301 301 301 301 302 302 302 303 304 305 305 306 306 307 307 307 308 308 308 308 308 308 308 308 308 308 308 308 308 308 308 308 308 309 308 309 309 309 310 310 311 311 312 312 313 314 314 315 315 315 315 316 316 316 316 317 317 316 316 316 315 315 314 313 313 313 313 313 313 313 313
317 318 315 316 316 316 319 319 318 318 316 316 315 317 324 321 314 310 306 304 304 303 302 302 301 300 300 301 301 301 301 301 302 303 304 305 305 306 306 307 307 307 307 307 307 307 307 307 307 307 307 307 308 308 308 308 308 308 308 308 308 308 308 308 308 308 307 307 307 307 308 308 309 309 310 310 310 311 311 312 312 312 313 313 313 313 313 312 312 312 312 312 312 312 312 312 311
320 321 317 316 317 317 317 317 317 320 322 318 314 321 332 329 320 313 308 306 304 302 301 301 301 300 300 301 300 301 301 302 303 303 304 305 305 305 306 306 306 306 306 306 306 306 306 306 306 306 306 306 307 307 307 307 307 307 307 307 308 307 308 308 308 307 307 306 306 306 306 306 305 306 306 306 306 306 306 307 307 307 307 308 308 308 308 308 309 309 309 310 310 310 311 311 311
319 321 319 316 315 315 317 317 317 322 324 316 311 318 327 330 325 315 309 308 305 303 302 300 300 300 299 300 300 300 301 302 303 304 304 304 305 305 305 305 305 305 305 305 305 305 305 305 306 306 306 306 306 306 306 306 306 307 307 307 307 307 307 307 307 306 306 306 305 305 305 305 304 305 304 304 304 304 304 304 304 304 304 304 304 305 305 305 305 306 306 308 309 309 309 310 310
323 320 319 320 318 317 319 318 319 321 320 318 317 316 317 323 322 314 310 311 307 304 303 300 300 299 299 299 299 300 301 302 303 304 304 304 304 304 304 304 304 304 304 304 304 305 305 305 305 305 305 305 305 305 305 306 306 306 306 306 306 306 306 306 306 305 305 305 304 304 304 304 304 304 304 304 304 303 303 303 303 303 303 302 303 303 303 303 303 303 304 305 306 307 308 308 308
323 317 316 321 319 320 322 320 320 317 314 321 323 315 315 322 320 311 309 312 311 306 303 301 300 299 298 298 299 300 301 302 303 303 303 303 303 303 303 303 303 303 304 303 304 304 304 304 304 304 304 304 304 305 305 305 305 305 305 305 305 305 305 304 304 304 304 304 304 304 303 303 303 303 303 303 303 303 303 303 303 303 302 302 302 302 302 302 302 302 302 302 303 304 305 306 306
315 312 316 319 318 320 322 321 322 317 314 321 322 316 317 322 323 315 310 313 315 308 303 301 300 299 298 298 299 300 301 302 303 303 303 302 303 303 302 303 303 303 303 303 303 303 303 303 303 303 304 304 304 304 304 304 304 304 304 304 304 303 303 302 302 302 302 302 302 301 301 301 301 301 301 301 301 302 302 302 302 302 302 302 302 302 301 301 301 301 301 301 301 301 302 303 304
309 313 320 321 320 320 321 321 319 317 319 322 320 317 316 320 324 320 313 312 312 307 304 302 300 298 298 298 299 300 301 302 302 302 302 302 302 302 302 302 302 302 302 302 302 302 302 302 302 303 303 303 303 303 303 303 303 303 303 303 303 302 302 301 302 301 300 300 299 299 299 299 298 298 299 299 299 299 300 300 300 301 301 301 301 301 301 301 301 301 301 300 300 300 300 300 301
311 319 323 321 322 320 319 321 319 318 324 322 316 314 313 318 323 317 311 308 306 306 305 302 300 298 298 298 299 300 301 301 301 302 302 301 301 301 301 301 301 301 301 301 301 301 302 301 301 302 302 302 302 302 302 303 303 303 302 302 302 301 300 300 300 299 299 298 298 297 297 297 297 297 297 297 297 297 297 298 298 299 299 300 300 300 301 301 301 300 300 300 300 300 299 299 299
315 321 321 321 322 320 321 322 319 320 321 315 313 313 313 318 319 311 309 306 303 304 303 300 299 298 298 299 299 300 300 301 301 301 301 301 301 301 301 301 301 301 301 301 301 301 301 301 301 301 301 301 301 301 301 301 301 301 300 300 299 298 298 298 297 297 297 296 296 296 295 295 295 295 295 295 295 295 295 295 296 296 297 297 298 299 299 299 300 300 300 300 300 300 300 300 299
315 319 321 322 322 322 324 321 316 318 318 312 312 313 315 319 315 306 305 303 300 301 301 300 300 299 299 299 300 300 300 301 301 300 301 301 301 301 300 300 300 300 300 300 300 300 300 300 300 300 300 300 300 299 299 299 299 298 297 297 296 296 296 295 295 295 294 294 294 294 294 293 293 292 292 292 292 292 292 292 292 293 294 294 295 296 297 297 298 298 298 299 299 299 300 300 300
314 317 318 320 323 324 324 322 319 319 320 314 310 313 320 321 312 302 301 300 299 301 300 300 300 299 300 299 299 300 300 300 300 300 300 300 300 300 300 300 300 300 300 299 300 299 299 299 299 299 298 298 297 296 296 296 296 295 295 294 294 294 293 293 293 293 293 293 293 293 292 292 292 292 291 291 291 291 291 290 290 291 291 291 292 292 293 294 295 295 296 296 297 297 298 298 299
313 313 315 317 321 320 318 319 318 317 319 316 313 317 318 313 305 300 300 299 298 299 299 299 299 299 299 299 299 300 300 300 300 300 300 300 300 300 300 300 299 299 299 299 299 299 298 298 297 297 296 295 295 295 295 295 294 293 293 293 293 292 292 292 292 292 292 292 292 292 292 292 291 291 291 291 291 291 291 290 290 289 289 289 289 289 290 290 291 291 292 293 294 294 295 296 296
314 312 318 317 315 317 319 318 313 313 318 317 316 318 313 308 306 302 301 301 299 299 298 298 298 298 298 299 299 299 299 299 299 299 300 300 300 299 300 300 299 299 299 298 298 297 297 296 296 295 295 294 294 294 294 294 293 293 293 293 293 292 292 292 292 291 291 291 291 291 291 291 291 291 291 291 290 290 290 290 290 289 289 288 288 288 288 288 288 288 289 289 290 291 292 292 293
318 317 318 314 312 317 320 319 317 316 318 317 316 318 315 315 313 304 300 302 301 300 299 297 298 298 298 299 299 299 299 299 299 299 299 299 299 299 300 299 299 298 298 297 297 296 295 295 294 294 294 294 294 294 294 294 293 293 293 292 292 292 292 292 291 291 291 291 291 290 290 290 290 290 290 290 290 289 289 289 289 289 289 288 288 288 288 287 287 287 287 287 287 288 289 289 290
314 315 313 312 316 320 318 318 320 319 318 319 319 317 315 316 315 308 305 304 302 301 300 299 298 298 298 299 299 298 299 299 299 299 299 299 299 300 299 299 298 297 297 296 295 294 293 293 293 293 293 294 293 293 293 293 293 292 292 292 292 291 291 291 291 290 290 290 290 290 290 290 290 290 289 289 289 289 289 289 289 289 289 289 289 288 288 288 288 288 287 287 287 287 287 287 288
308 310 310 312 317 320 318 316 318 320 318 319 319 316 316 318 317 315 311 303 300 301 301 300 299 298 300 300 299 299 300 300 300 300 300 299 300 300 299 298 297 296 295 294 293 293 292 292 292 292 292 292 292 292 292 292 291 291 291 291 291 290 290 290 290 290 290 290 290 290 290 290 290 289 289 289 289 289 289 289 289 289 289 289 289 289 289 288 288 288 288 288 288 288 287 287 287
312 313 314 314 314 315 317 315 316 319 319 318 317 316 320 320 313 313 310 303 300 301 300 300 299 300 301 301 300 301 301 300 300 300 299 299 299 299 298 296 295 294 293 292 291 291 291 291 291 291 291 291 291 291 291 291 291 290 290 290 290 290 290 290 290 290 290 290 290 290 290 290 289 289 289 289 289 289 289 289 289 289 289 289 289 289 289 289 289 288 288 288 288 288 288 288 288
317 317 317 316 315 315 316 315 315 316 317 319 318 316 319 316 308 309 308 302 300 300 300 300 300 301 302 301 302 301 301 301 300 300 299 298 298 298 296 295 294 292 292 291 291 291 290 290 290 290 291 291 291 291 291 291 291 291 290 290 290 290 290 290 290 290 290 289 289 289 289 289 289 289 289 289 289 289 289 288 289 289 288 289 288 288 289 288 289 288 288 289 289 288 288 288 288
Wind_Speed
8 7 8 6 5 4 4 3 0 2 4 2 2 0 2 3 1 1 3 3 2 3 4 3 2 2 1 1 3 4 4 4 3 2 1 3 0 1 0 1 3 2 3 7 9 13 17 18 18 17 17 17 16 16 16 15 15 14 14 14 14 13 13 12 11 10 9 8 6 5 4 5 6 6 7 7 8 8 7 7 9 10 9 8 8 6 5 5 4 4 4 4 5 5 5 5 4
8 7 7 4 4 3 3 2 2 3 5 2 2 2 3 3 0 3 5 5 3 2 2 2 2 3 3 4 4 3 4 5 5 5 4 3 2 3 2 1 3 3 3 5 8 11 14 17 17 17 16 16 16 16 16 15 14 12 14 15 14 15 14 12 11 10 8 7 5 4 5 5 5 6 7 7 7 7 7 8 9 9 9 8 8 5 4 5 5 5 5 6 6 6 6 5 5
7 5 6 3 3 3 0 3 2 1 5 1 4 4 2 1 4 7 8 7 3 2 2 2 3 3 2 2 2 1 3 4 5 6 5 3 3 4 3 2 2 4 4 4 6 9 12 15 17 17 16 15 15 16 16 16 13 11 14 15 15 15 14 13 12 11 9 7 6 5 5 4 5 6 6 7 7 8 7 8 9 8 8 7 6 5 5 6 6 6 6 7 8 8 7 7 6
7 5 5 3 1 2 3 4 2 4 3 3 2 4 3 3 7 7 7 6 5 3 3 2 2 2 2 2 2 3 5 5 3 4 3 3 3 5 4 2 2 4 5 5 5 7 10 13 16 17 17 16 15 15 16 16 13 12 14 14 15 15 15 14 13 12 10 8 6 5 4 4 6 7 8 8 8 8 7 7 8 7 6 6 6 6 7 7 7 7 8 8 9 9 9 8 8
5 5 6 4 0 1 3 3 2 3 2 4 1 4 5 5 7 6 5 5 5 4 2 3 2 2 3 4 3 2 3 2 2 3 3 3 4 5 5 4 1 3 5 6 6 6 8 11 14 16 17 16 15 16 16 15 13 12 14 15 15 16 15 15 14 13 11 9 6 5 4 6 8 8 9 9 8 7 6 5 7 7 6 7 7 8 8 7 7 8 9 9 9 9 9 9 9
4 4 6 4 3 2 3 3 1 1 4 5 2 6 6 6 6 5 5 2 3 3 3 3 2 2 3 4 4 4 4 3 2 2 3 4 4 4 5 5 2 2 5 6 7 6 7 10 12 15 17 17 16 16 17 15 14 13 14 15 15 16 16 16 15 13 11 9 7 5 5 8 9 11 11 10 9 7 7 6 6 7 7 8 8 9 8 8 9 9 9 9 10 9 9 10 10
4 4 5 3 4 3 3 3 3 2 3 5 4 5 6 7 6 4 4 1 1 2 4 3 2 2 3 3 4 4 5 6 5 5 5 4 3 4 5 5 3 2 4 6 7 7 7 9 11 14 16 17 17 17 17 16 15 14 14 15 16 16 16 16 15 14 12 10 8 7 7 10 12 13 13 11 10 8 8 7 7 7 8 8 9 9 10 10 10 9 9 9 10 10 9 9 8
5 4 4 3 2 4 4 2 3 3 1 3 4 6 6 6 5 3 2 0 1 3 3 4 2 1 2 3 5 6 6 7 7 8 7 4 2 2 5 5 4 2 2 4 7 8 8 9 11 13 15 16 17 18 18 16 16 16 15 15 16 16 16 16 16 15 13 11 10 8 9 12 13 15 15 13 12 9 9 8 8 8 9 9 9 11 12 11 11 10 9 9 9 8 7 6 6
6 5 3 3 2 3 3 1 3 3 3 4 4 6 5 4 4 3 2 1 1 2 4 5 2 1 4 6 7 8 7 7 7 7 7 5 3 1 4 5 4 3 2 3 5 8 9 9 11 13 14 16 17 18 17 17 17 17 16 16 16 17 17 17 17 16 15 13 12 10 10 14 15 15 16 14 13 11 10 9 8 9 9 9 10 11 12 12 11 10 9 8 7 6 6 5 5
6 6 3 3 3 3 3 2 2 2 5 5 6 9 5 3 4 2 1 2 2 2 4 3 4 4 6 8 9 7 6 8 7 7 7 6 5 2 2 4 4 4 3 2 4 7 8 9 11 13 14 16 16 17 18 18 18 17 17 17 17 17 17 17 17 17 16 14 13 11 11 15 16 16 16 14 14 14 12 10 9 8 9 10 11 11 12 11 10 9 8 7 6 6 5 5 5
4 6 3 4 4 2 1 3 4 4 6 6 7 8 4 3 3 2 1 3 4 4 4 2 3 5 5 7 9 9 8 10 9 7 8 7 6 5 4 3 4 4 3 2 3 6 8 10 11 13 15 16 17 17 18 19 18 17 17 17 18 18 18 18 18 18 17 15 14 13 13 16 17 17 17 14 14 16 14 12 10 9 10 11 11 11 11 9 9 8 7 6 6 6 6 5 5
3 3 4 4 3 1 2 2 5 6 7 5 3 2 2 4 2 3 3 3 4 6 6 2 2 3 2 4 8 12 10 8 7 6 8 8 8 8 7 5 4 5 4 3 4 5 7 9 11 13 15 16 18 18 18 19 19 18 17 17 17 18 18 18 18 18 18 17 15 14 13 16 18 18 18 15 14 15 15 13 11 9 11 12 11 10 10 8 8 7 6 6 6 6 6 6 6
2 1 4 3 2 2 2 2 4 5 6 2 2 2 4 4 3 4 3 3 5 4 5 3 3 3 3 6 10 8 7 7 7 5 8 10 11 12 11 8 6 7 6 5 5 5 6 9 11 13 15 16 18 19 19 20 20 19 18 18 18 18 18 18 18 19 19 18 16 16 14 16 19 19 19 17 14 15 14 13 11 10 11 12 11 10 9 8 7 7 6 6 7 7 7 7 7
3 3 4 2 1 1 2 2 2 1 3 3 4 6 7 6 5 8 4 4 6 3 4 4 3 3 4 6 7 3 6 12 11 9 9 11 13 14 14 12 10 10 9 7 6 6 7 9 11 13 15 17 18 19 20 21 21 20 19 19 18 18 18 17 18 19 19 19 17 17 16 17 19 20 21 19 16 16 15 14 12 11 12 12 11 10 9 8 6 6 7 7 7 8 7 7 7
4 3 4 3 2 2 3 2 1 3 3 4 6 11 12 9 7 10 7 4 5 5 5 4 4 4 4 4 8 10 13 17 16 15 13 13 15 15 16 15 13 13 12 9 8 8 9 10 11 13 15 17 19 20 21 22 22 22 20 20 19 19 19 17 17 19 20 20 19 19 18 18 19 21 21 21 19 18 18 16 14 13 12 12 12 11 10 8 6 6 8 8 8 8 8 8 8
3 3 5 2 1 2 2 2 1 3 4 4 6 13 11 9 9 10 10 6 9 10 8 8 7 9 12 13 18 20 20 20 19 18 16 14 15 16 18 17 16 16 15 12 10 10 11 12 12 13 15 16 18 20 21 21 22 23 22 21 21 20 20 18 18 19 20 20 20 20 20 20 20 21 22 22 21 20 19 18 16 13 13 12 12 12 11 10 8 7 8 9 9 9 9 9 9
3 3 4 2 1 2 3 4 3 3 5 6 7 10 5 7 10 10 11 11 14 16 14 14 14 16 18 20 21 22 22 22 21 19 16 12 13 15 18 19 19 19 18 16 13 12 12 13 14 14 15 16 17 19 20 21 22 22 23 22 22 22 21 20 19 19 20 20 20 21 21 22 22 22 22 23 22 21 20 19 16 14 13 13 12 12 12 11 9 8 8 10 10 10 10 10 9
2 3 3 1 3 3 5 7 5 3 3 6 8 9 4 7 10 11 12 12 15 18 20 18 18 18 16 16 17 19 20 19 19 18 16 13 13 14 16 19 21 21 20 18 16 14 13 14 15 15 16 17 17 18 20 21 22 22 23 23 23 23 22 21 21 20 20 20 20 20 21 23 23 22 22 22 22 21 20 19 16 14 14 14 13 13 13 12 11 9 9 11 11 11 11 11 10
2 3 2 3 5 5 5 7 6 3 5 9 11 10 6 8 10 11 9 11 14 16 21 20 18 19 17 16 16 17 17 17 18 17 17 16 16 16 15 17 19 21 20 19 19 17 15 15 16 16 16 17 18 19 20 21 22 22 22 23 23 23 23 23 22 22 21 21 20 20 21 22 22 22 22 22 22 20 20 19 16 15 16 15 13 13 14 13 12 11 10 11 12 12 12 12 11
2 3 2 6 7 5 6 8 9 9 10 10 10 9 9 12 12 9 6 11 14 11 17 16 16 23 24 23 22 20 18 17 17 16 16 17 17 17 17 17 18 19 19 19 19 18 17 17 17 16 15 16 18 19 20 21 22 22 23 24 24 24 24 23 23 23 23 22 21 21 21 21 21 21 21 22 22 22 22 20 18 18 18 16 14 13 14 14 13 12 11 11 12 13 13 12 12
2 4 4 5 4 2 9 10 12 13 10 8 10 9 11 15 12 7 6 8 10 15 20 17 18 27 28 25 24 21 19 17 16 16 16 17 18 18 17 17 17 18 18 19 19 19 18 17 16 16 15 16 18 20 20 21 21 22 23 23 25 25 25 24 24 24 24 24 23 22 22 21 20 20 21 21 22 23 23 22 21 19 18 17 16 14 13 14 14 13 12 11 12 14 14 13 14
3 5 7 6 3 3 10 12 13 14 10 10 11 8 10 12 11 11 8 5 11 23 29 26 27 30 28 25 23 20 17 16 16 16 17 18 19 20 20 20 20 21 21 20 19 19 18 16 15 14 14 15 17 19 20 21 22 22 22 22 24 26 26 25 25 25 25 25 25 24 23 22 21 21 21 22 22 23 23 23 22 20 19 19 18 16 14 14 14 14 13 12 13 15 15 15 15
3 4 7 9 8 7 14 15 15 16 13 13 11 10 11 10 13 16 13 16 23 31 30 29 29 26 23 22 18 14 13 14 15 15 16 17 18 18 19 20 21 22 22 20 18 19 19 17 15 14 13 14 15 17 19 21 22 23 22 22 23 25 27 27 26 26 26 26 25 25 24 23 23 22 21 23 23 23 23 24 22 21 21 22 21 18 17 15 15 15 14 13 13 16 17 16 16
4 4 5 8 10 10 15 16 17 18 17 19 16 14 13 9 11 14 19 30 32 28 22 20 22 21 18 15 12 12 14 15 16 17 17 17 17 15 16 17 17 19 19 18 18 19 18 18 17 15 13 12 13 14 16 19 21 22 23 23 23 23 25 27 27 26 27 27 26 25 25 24 24 22 22 24 24 23 24 24 22 22 24 25 24 21 20 18 17 16 15 15 15 16 18 18 17
5 5 6 6 9 11 15 17 20 21 20 21 17 16 16 13 12 13 25 31 22 16 12 12 15 16 15 12 12 13 13 14 15 17 18 17 16 16 16 17 16 17 17 17 18 17 17 18 17 15 12 11 12 12 14 15 17 20 22 23 23 22 22 24 27 27 26 28 29 27 25 24 24 23 23 24 25 24 24 24 23 24 26 27 27 23 21 21 20 18 16 15 15 17 19 19 19
4 5 6 7 12 15 16 18 22 20 19 18 12 15 18 13 8 11 21 16 8 7 7 8 12 15 15 13 13 14 14 14 15 16 17 17 17 17 18 18 18 18 18 17 17 17 16 16 15 13 12 11 11 12 12 13 14 16 18 21 23 23 22 21 25 27 26 25 27 28 27 25 23 23 22 23 24 25 25 25 25 26 26 27 28 25 22 22 21 20 18 16 16 17 19 20 21
3 3 7 10 14 17 17 18 23 20 17 15 9 12 15 7 0 7 16 10 7 10 8 11 12 13 13 12 14 16 17 16 15 15 15 16 16 16 16 17 17 16 16 16 16 16 15 14 12 11 10 10 11 11 11 12 12 13 15 17 20 22 21 19 21 24 26 25 24 26 26 25 23 23 22 22 23 24 24 25 25 24 24 24 26 25 23 22 21 19 19 18 17 18 19 21 22
4 6 8 11 13 17 18 16 20 14 9 9 7 8 9 1 3 9 16 12 13 15 13 14 12 11 10 11 13 14 16 15 14 14 14 13 12 11 13 14 15 14 13 13 14 14 13 13 11 9 8 8 9 9 10 10 11 11 12 14 16 17 17 17 17 19 23 25 24 23 23 23 22 22 23 23 22 23 24 24 24 23 23 23 23 23 21 21 20 19 18 19 19 19 20 22 24
6 5 5 9 10 12 16 11 8 4 2 4 2 4 7 1 8 12 14 12 13 16 16 14 12 10 8 8 9 10 11 12 11 12 9 8 7 8 9 11 12 12 11 10 11 11 11 12 11 10 9 7 6 7 8 9 9 10 10 11 11 13 14 14 15 15 17 22 23 21 20 19 19 20 22 23 23 23 23 22 22 22 21 21 21 20 19 19 19 18 18 18 19 20 21 22 24
7 3 1 5 7 7 9 2 1 2 3 4 3 2 7 6 13 14 13 11 14 18 17 15 12 9 5 4 5 5 7 8 8 6 4 4 5 5 6 7 8 8 7 6 7 9 10 12 12 12 12 9 7 6 7 8 8 8 8 9 9 10 11 12 13 12 12 15 18 17 16 16 16 17 19 19 20 20 20 21 20 19 18 18 18 18 18 19 19 18 18 18 19 20 21 22 24
3 2 1 2 2 5 7 3 2 3 3 5 5 2 6 9 15 15 13 13 16 18 15 12 9 5 2 2 2 2 2 2 2 2 2 3 4 4 4 4 5 4 3 3 4 5 8 10 11 12 12 11 9 7 7 7 8 8 7 7 8 8 9 11 12 12 12 13 14 15 16 15 14 15 16 17 17 15 17 20 18 16 16 16 16 17 18 19 20 20 20 20 20 19 20 21 23
2 1 3 2 2 5 11 9 4 3 2 4 6 2 5 9 14 16 15 15 17 16 13 8 3 0 2 2 2 2 3 3 2 3 3 3 4 4 4 4 4 3 2 1 1 3 5 8 9 10 10 10 10 9 7 7 7 7 7 6 6 7 8 9 10 12 15 15 14 14 15 15 14 15 16 16 16 15 16 17 16 15 16 17 17 18 19 20 21 22 22 22 22 20 20 20 21
3 1 4 3 3 3 7 7 2 4 0 2 2 2 4 6 12 22 21 16 16 14 10 4 2 2 3 3 4 5 5 4 4 4 4 4 5 5 5 4 4 4 3 2 1 2 3 5 6 8 9 9 9 9 8 7 6 6 6 5 5 5 6 8 8 9 11 12 13 13 14 14 14 14 14 15 15 16 16 16 16 16 17 17 18 19 20 22 22 23 24 24 24 22 21 21 21
3 1 3 4 4 3 4 6 3 2 3 1 1 2 6 8 14 28 24 16 17 11 5 3 6 5 5 6 6 6 5 5 5 6 6 6 6 6 5 5 4 3 2 1 1 1 1 2 2 4 5 6 7 7 7 6 5 4 4 4 5 5 6 7 8 8 9 10 11 12 13 13 14 14 14 15 15 16 16 16 17 17 18 18 19 20 21 22 23 23 24 25 25 24 23 22 22
4 3 3 4 4 3 5 6 4 4 4 3 3 3 9 9 14 25 22 17 15 8 6 8 9 9 9 9 9 8 7 7 8 8 7 6 6 6 5 5 4 3 2 2 2 2 1 2 2 1 1 3 4 5 5 5 4 4 3 3 3 3 4 5 6 7 7 9 10 10 11 11 12 12 12 13 14 15 15 16 17 18 18 19 20 21 21 22 23 23 24 24 25 24 24 23 22
7 6 4 4 4 5 6 7 5 3 4 6 6 6 8 9 11 15 17 16 11 9 11 12 12 12 12 12 12 11 10 11 10 8 7 6 7 7 7 7 7 5 5 4 2 2 2 3 3 2 2 1 1 2 3 3 3 3 3 3 3 3 3 4 5 5 6 7 8 8 8 8 9 9 8 8 9 12 13 13 15 16 17 18 20 21 21 22 22 22 24 24 24 24 23 23 23
4 3 3 4 5 6 6 6 6 1 1 6 6 5 7 9 9 9 14 12 12 11 13 14 14 14 14 14 14 13 13 13 10 8 8 7 8 9 9 9 8 8 8 7 6 6 6 5 4 5 5 4 2 1 1 2 3 3 3 3 3 3 4 4 5 6 6 7 8 8 8 9 11 11 11 11 10 11 11 11 12 13 14 15 17 18 20 20 21 22 23 24 23 24 24 23 23
2 2 3 4 4 7 7 6 6 1 3 5 3 3 8 9 4 8 11 10 11 10 12 13 14 15 15 15 16 16 15 14 11 11 11 10 10 10 10 11 12 14 16 17 17 17 17 15 14 14 12 10 9 9 7 5 4 2 1 2 3 4 4 5 6 6 7 8 9 9 10 11 12 13 14 14 14 15 15 14 14 13 14 14 16 17 18 19 19 20 22 22 23 24 24 24 24
4 2 2 4 4 4 7 6 5 1 3 4 2 2 9 6 3 7 10 10 10 11 13 12 13 15 16 16 17 18 19 18 18 19 18 18 17 17 18 21 23 25 26 27 28 28 28 27 26 24 22 21 20 19 17 16 14 11 8 6 3 1 1 2 4 5 6 7 8 9 10 11 12 13 14 14 16 17 18 19 20 20 20 20 20 21 21 21 21 20 20 21 21 22 23 24 24
3 3 3 5 3 1 4 5 5 3 0 2 2 3 7 4 4 7 9 11 13 16 16 15 15 16 16 16 17 19 21 22 23 25 26 26 27 28 30 30 31 31 31 31 31 30 30 30 28 26 25 24 24 23 21 21 19 17 16 14 12 9 7 5 3 1 2 3 5 6 8 9 11 13 13 14 15 16 18 19 21 23 24 24 25 26 26 25 25 23 22 21 20 21 21 22 22
3 6 6 5 5 6 7 4 5 4 2 2 1 3 5 3 2 3 6 10 12 14 16 17 16 16 16 17 18 20 21 22 25 27 29 31 32 32 32 31 31 31 31 30 29 28 28 27 26 25 24 23 23 22 21 20 19 18 17 16 15 13 11 10 7 6 5 4 3 2 3 5 8 9 11 12 13 15 16 17 19 20 22 23 25 26 26 26 26 25 24 23 21 21 22 21 21
4 6 10 11 9 9 6 3 5 4 3 3 4 3 5 4 1 3 4 5 7 9 13 14 13 14 16 18 19 20 21 23 26 28 29 30 30 30 30 29 29 29 29 28 26 25 25 25 24 23 23 23 22 21 20 19 19 18 17 16 15 14 13 12 11 10 8 6 5 4 3 3 4 5 7 9 10 12 13 14 16 17 18 19 20 21 22 23 24 24 24 24 22 22 22 23 23
3 5 9 11 8 6 5 2 2 0 3 3 3 1 5 5 3 4 5 5 4 6 8 9 11 13 15 16 17 19 22 24 25 27 27 28 28 27 28 27 27 27 26 24 23 23 23 22 22 22 22 21 20 20 19 18 18 18 17 16 15 14 14 13 12 11 9 8 7 6 5 4 4 3 4 5 6 7 8 10 12 13 14 16 17 18 19 19 20 20 21 22 22 21 22 24 25
3 4 4 6 6 6 6 5 4 3 3 3 3 1 3 5 4 3 6 6 5 4 5 6 8 10 12 15 16 19 21 23 25 25 25 26 26 25 25 25 24 24 23 21 21 21 20 20 20 19 19 19 18 17 16 17 17 17 16 15 14 15 15 14 13 11 11 10 9 8 8 8 8 8 8 8 7 7 7 7 8 9 10 12 13 15 16 17 17 17 18 19 20 21 21 23 24
6 3 6 6 6 5 5 5 2 1 1 4 4 0 2 5 4 1 4 4 2 3 2 3 5 8 11 13 16 19 21 22 23 23 23 24 23 23 23 22 21 20 19 19 19 18 18 17 17 16 17 17 16 14 14 16 16 16 15 14 15 16 16 15 14 13 12 12 11 10 10 11 11 11 11 11 10 10 9 9 8 8 8 9 10 12 13 14 15 16 16 17 18 19 20 21 23
4 5 7 5 5 5 4 5 3 2 1 4 6 4 2 5 4 2 2 3 3 3 3 2 5 8 11 13 15 18 20 21 21 21 21 21 21 21 20 19 18 18 17 16 16 16 15 15 14 14 15 15 14 13 13 15 16 14 14 15 15 16 16 14 13 12 13 12 11 11 11 11 11 11 11 11 11 11 11 11 10 10 10 9 10 10 11 13 14 15 15 16 16 17 18 20 22
5 6 5 6 5 4 3 2 3 2 3 6 8 8 5 4 5 2 3 2 4 6 4 4 6 8 11 14 15 17 19 19 19 19 19 19 18 18 17 16 16 15 15 14 14 14 13 14 13 13 14 13 12 12 12 14 14 14 14 14 14 14 13 11 10 11 12 12 13 13 13 12 12 12 12 12 11 11 11 12 12 12 12 12 12 12 12 13 14 15 16 17 17 17 18 19 21
6 4 4 3 4 4 4 4 3 1 5 5 4 4 5 4 4 2 3 3 3 8 8 8 9 11 13 15 16 17 17 17 17 17 17 16 16 15 15 14 14 13 12 12 13 12 12 13 12 11 11 11 11 11 11 13 13 13 13 12 12 12 11 11 11 12 13 14 14 15 14 13 13 13 12 12 13 13 13 13 13 13 13 13 13 14 14 14 14 15 17 17 18 18 18 20 21
5 4 5 3 3 3 3 3 0 3 6 3 2 1 2 6 4 2 3 5 4 6 11 15 17 18 17 16 16 16 16 16 16 15 15 14 14 13 13 13 12 11 11 11 11 11 11 11 10 10 10 11 10 10 11 12 12 12 12 12 12 13 13 13 14 15 16 17 17 17 17 17 17 16 16 16 16 15 15 15 15 15 15 15 15 15 15 15 15 16 16 17 18 18 18 19 20
4 5 5 3 2 1 3 3 2 4 5 3 2 1 2 5 2 1 4 6 6 5 15 21 23 23 21 19 17 16 16 15 14 14 13 13 13 12 12 11 11 10 10 10 9 9 9 9 9 9 9 9 9 9 10 11 12 12 13 13 13 13 14 14 15 16 17 18 18 20 21 21 21 21 21 20 19 18 17 16 16 15 15 15 15 16 16 16 16 17 17 17 18 18 19 19 19
4 4 5 4 4 4 4 4 3 4 4 3 2 1 2 3 1 3 4 3 3 9 18 21 22 22 20 19 17 16 16 15 14 13 12 12 11 11 10 9 9 8 8 7 7 7 7 7 8 8 8 8 8 9 11 12 12 13 12 12 13 13 13 13 13 14 14 15 16 17 18 19 20 21 22 22 22 22 21 21 20 20 19 18 17 16 16 17 17 17 17 18 18 19 19 19 19
2 3 4 2 4 4 2 3 5 2 3 2 2 2 3 3 1 4 2 5 7 11 17 19 20 20 19 18 17 17 16 14 13 12 11 10 10 9 8 7 6 6 6 5 5 5 5 6 7 7 8 8 8 9 11 12 12 12 12 12 12 12 12 12 12 13 13 14 14 15 16 17 18 19 19 20 21 22 23 23 23 23 22 21 20 19 18 17 17 17 17 18 18 19 20 19 19
2 3 3 4 4 5 1 2 1 3 2 4 2 2 3 1 1 4 3 4 5 7 11 16 18 18 18 18 18 17 16 14 13 11 10 9 8 7 6 5 4 4 3 3 4 4 5 6 6 6 6 7 7 8 9 10 9 9 10 10 11 11 11 12 13 13 14 15 15 15 16 16 17 18 18 19 20 21 22 22 23 23 23 23 22 21 21 20 19 18 17 18 18 18 19 19 20
4 2 5 3 2 4 3 2 2 2 3 4 1 3 3 2 1 2 2 3 4 4 8 12 14 15 17 19 18 17 15 14 12 11 9 8 7 5 3 2 1 2 2 2 3 4 4 5 5 4 4 4 5 6 6 6 6 6 7 8 9 10 11 12 12 13 13 14 14 15 16 16 17 18 18 18 19 20 21 21 22 23 23 24 24 24 23 23 22 21 20 19 19 19 19 19 19
4 3 2 3 2 1 2 2 2 2 4 4 2 3 3 4 4 2 5 9 9 7 7 8 11 15 18 19 18 16 15 14 13 11 10 9 7 4 3 2 2 2 2 3 4 5 4 4 4 4 3 4 4 5 5 5 6 6 7 8 9 11 12 13 14 14 15 15 16 17 17 18 19 19 20 20 21 22 22 22 23 23 24 24 25 25 26 26 26 25 25 24 23 23 23 22 20
3 2 1 2 2 3 2 2 3 3 3 4 5 4 3 5 6 8 11 13 12 12 10 9 13 19 21 20 19 17 15 14 13 12 11 10 7 4 4 4 3 4 4 5 5 4 4 4 4 4 5 6 6 7 7 8 9 9 10 11 12 14 15 16 17 17 18 19 20 20 21 21 22 22 23 24 24 25 25 26 26 26 26 26 26 26 26 27 28 28 28 28 28 28 28 27 26
1 1 1 1 0 1 1 1 2 3 3 3 5 6 5 4 3 7 11 11 13 15 12 10 16 22 22 21 19 16 14 13 13 12 11 11 8 5 6 6 5 5 5 5 4 4 4 4 5 6 6 7 8 9 10 11 12 13 13 14 15 17 18 19 20 21 22 22 23 23 23 24 25 25 26 27 27 28 28 29 29 29 29 29 29 29 28 29 29 30 30 30 31 31 31 32 31
5 4 4 4 3 2 2 4 1 1 3 3 4 8 7 3 2 4 6 9 13 16 14 13 20 24 22 19 18 16 14 13 13 12 12 12 9 7 7 7 6 6 5 4 3 3 3 4 5 5 6 7 8 9 10 11 11 12 13 14 15 17 18 20 21 22 23 24 25 25 26 27 28 29 30 31 31 31 31 32 32 32 32 32 32 32 31 31 31 31 31 31 31 32 33 33 33
Wind_Direction
329 321 318 315 321 309 291 315 285 359 65 80 318 353 244 238 211 231 277 281 293 260 229 260 278 223 234 280 242 255 243 199 189 138 233 256 18 347 24 158 192 174 160 181 190 187 186 189 195 198 201 203 201 199 202 209 214 214 205 205 204 197 192 193 192 191 195 197 201 210 226 234 239 233 218 209 202 201 198 192 181 180 184 189 195 190 189 202 217 235 253 259 260 256 245 238 236
339 330 330 321 334 329 270 4 84 344 47 65 291 182 263 305 319 217 218 221 219 252 244 244 261 260 266 286 275 299 271 240 243 232 260 276 299 317 327 316 195 185 181 186 197 195 191 190 194 197 202 204 200 198 201 208 217 212 202 206 205 199 195 196 198 202 208 211 220 229 240 243 233 218 206 201 199 195 190 192 191 191 193 198 205 205 218 233 245 254 260 263 262 257 248 241 236
349 341 342 320 328 358 244 33 84 57 71 107 276 243 293 359 227 228 218 227 260 286 255 246 256 258 263 318 273 242 260 258 267 247 257 270 293 328 327 310 207 198 198 195 204 203 198 193 196 197 202 205 199 199 200 208 218 211 203 208 209 205 202 198 198 204 210 218 230 239 251 244 213 196 191 186 182 183 184 193 197 202 209 212 215 223 242 249 255 260 261 262 263 260 254 250 246
357 360 356 329 301 19 60 42 118 113 110 189 280 274 267 199 229 242 239 259 280 262 260 292 287 248 241 308 273 249 270 272 273 227 233 277 318 341 343 338 237 218 206 202 205 205 204 198 199 199 203 206 202 201 202 210 219 213 206 209 211 210 209 205 204 207 210 218 228 235 246 221 195 187 188 187 183 186 192 200 204 211 220 223 226 235 244 247 256 264 266 263 261 259 257 255 253
2 9 358 343 338 50 76 71 101 95 173 186 97 278 252 213 229 253 272 289 260 237 273 299 305 288 260 278 263 246 286 290 254 212 238 300 339 357 2 360 284 238 217 208 206 205 205 201 203 202 205 206 203 205 210 216 221 216 211 210 212 213 214 212 213 215 217 223 229 237 234 201 192 193 196 197 193 190 198 206 209 218 229 236 242 246 247 252 265 273 273 269 262 259 257 257 256
354 358 356 20 77 85 95 89 99 295 226 174 155 263 257 228 230 268 294 306 219 236 285 279 292 314 288 285 262 253 290 307 272 242 278 307 346 8 11 4 340 254 226 214 212 208 204 203 204 205 207 209 206 207 215 221 221 220 216 213 213 216 217 218 219 222 224 226 231 240 227 205 201 206 206 204 204 206 212 213 220 230 240 250 255 258 262 270 277 279 276 270 264 261 259 260 259
347 333 347 48 65 43 92 117 194 244 236 173 177 250 261 247 241 287 308 52 151 276 285 273 303 324 304 315 296 282 292 288 282 280 289 301 340 8 14 8 356 290 241 225 218 211 208 207 205 207 209 212 210 209 217 222 222 223 220 217 217 218 220 221 223 224 226 226 229 235 224 212 210 215 216 210 215 226 223 219 228 240 249 256 264 271 278 283 286 285 280 273 266 264 260 259 258
7 350 9 68 42 28 87 112 231 220 235 210 223 249 264 270 258 281 291 138 336 308 304 288 317 356 288 312 307 302 306 297 289 276 269 277 303 4 19 19 10 346 273 241 225 217 212 210 207 210 211 214 215 215 219 221 223 224 223 222 220 221 224 224 224 225 226 226 229 234 223 216 217 225 228 221 223 229 226 226 232 243 254 261 270 277 284 287 290 288 283 277 270 265 260 258 253
5 360 23 64 60 30 48 2 290 245 260 277 280 264 270 283 255 260 291 294 311 313 318 289 268 303 293 306 300 298 302 306 301 271 254 255 258 327 19 30 23 6 324 269 239 229 221 215 211 212 214 216 219 221 222 222 224 224 223 224 224 224 226 227 226 225 226 228 232 235 224 219 221 230 236 229 223 224 226 232 236 244 254 263 271 276 282 286 288 288 283 278 270 264 258 258 254
2 18 57 67 71 34 2 300 304 281 264 283 289 275 278 287 256 252 322 324 309 317 334 292 248 262 290 303 301 306 301 308 312 272 252 250 247 263 348 20 23 12 341 292 254 241 232 226 217 215 218 220 222 224 225 225 226 225 224 225 227 226 227 230 227 225 226 229 232 233 224 220 222 230 239 234 225 226 228 237 243 251 260 267 273 277 279 281 282 280 276 271 265 262 259 259 257
3 22 63 73 65 39 323 250 288 288 280 306 296 270 265 290 285 285 339 331 305 308 322 301 253 261 280 290 293 311 306 308 310 268 251 254 256 259 281 328 358 358 324 277 253 245 240 235 226 221 220 222 225 227 227 229 230 229 226 225 228 229 229 231 228 227 228 229 231 233 225 221 224 230 239 240 232 229 230 240 248 259 274 279 282 285 284 282 279 271 265 264 262 263 262 259 260
11 8 51 85 109 206 214 236 281 288 301 325 295 265 289 286 282 285 286 308 302 311 311 287 264 280 287 279 293 316 323 323 315 272 254 253 260 266 272 286 321 334 305 264 251 246 244 241 234 227 223 224 227 229 230 231 233 232 230 229 229 230 231 232 230 228 229 230 231 233 228 224 227 230 238 243 238 235 233 238 248 266 282 286 290 294 292 289 281 269 262 265 266 266 266 265 266
57 127 73 89 161 181 194 240 269 302 326 324 259 318 336 295 298 306 274 278 295 303 318 303 263 270 260 280 296 323 358 355 347 313 273 262 263 267 273 276 295 315 299 271 261 254 249 247 242 235 229 226 228 230 231 232 235 235 234 233 233 234 233 233 231 228 230 232 232 232 230 226 229 230 236 243 242 241 239 238 247 267 281 287 294 298 295 291 281 271 265 267 269 267 267 268 268
73 141 97 104 97 124 187 268 305 8 315 298 315 332 333 311 318 327 303 285 296 280 310 300 249 267 269 280 292 321 349 330 329 321 295 280 274 268 269 272 284 300 295 277 265 266 262 254 247 241 234 228 229 230 231 232 234 237 236 236 236 237 236 234 231 228 229 232 232 232 231 228 230 231 235 241 242 244 245 245 254 270 283 292 297 299 294 285 275 270 269 268 268 267 267 268 268
76 105 91 110 26 343 221 247 44 119 240 285 346 341 333 317 313 324 312 279 291 289 297 277 243 283 281 260 284 296 309 310 311 310 303 291 280 270 266 268 277 288 291 281 268 273 273 261 251 246 240 233 231 231 231 230 231 236 237 238 238 239 240 237 233 230 230 233 233 232 233 231 231 232 235 240 242 243 248 251 259 272 285 292 297 298 292 283 272 268 273 272 268 267 268 268 268
68 83 71 76 336 311 238 207 111 126 245 267 337 340 332 313 312 317 311 292 287 289 284 272 265 278 277 272 284 294 299 301 304 307 305 296 283 271 265 266 273 281 284 281 275 277 278 269 258 250 246 240 237 235 234 233 232 233 235 238 239 241 242 241 237 233 232 234 235 234 233 232 233 235 237 242 244 244 248 253 259 271 281 286 292 294 288 281 270 266 271 273 271 270 270 269 267
63 72 70 34 211 222 219 201 177 175 266 278 319 336 327 303 311 306 303 294 287 286 281 281 283 281 282 285 291 294 296 299 302 305 306 302 293 278 267 267 272 278 282 282 279 277 280 279 268 257 252 247 243 240 238 237 236 234 233 235 237 240 242 242 241 237 235 236 237 235 233 233 234 238 240 242 245 246 248 252 258 268 275 279 286 289 284 276 268 262 265 270 271 271 271 269 267
80 85 100 237 201 200 190 187 193 180 274 280 300 321 299 289 307 309 304 291 288 292 291 293 294 295 299 303 305 302 301 302 302 303 304 303 302 291 278 274 276 279 282 282 281 279 284 288 277 264 257 251 248 246 242 240 239 236 234 235 235 237 239 240 241 240 237 237 238 237 233 234 236 239 243 243 245 245 247 251 258 266 270 273 280 284 280 272 266 261 259 266 270 271 272 269 267
119 102 123 232 202 212 206 195 208 210 271 280 294 308 289 283 302 313 306 293 301 303 301 304 306 316 328 326 323 316 310 304 300 301 299 298 299 298 293 285 283 285 286 287 286 282 285 289 281 270 262 256 252 250 248 245 242 240 238 237 237 236 236 236 239 240 239 238 239 239 236 236 238 241 244 246 247 248 249 253 259 264 267 270 276 281 280 272 266 262 258 262 268 271 271 269 266
166 112 164 244 216 233 252 243 251 263 276 281 295 305 294 298 307 306 297 305 309 294 293 300 306 320 331 331 329 324 319 312 305 301 296 296 296 297 296 292 290 293 294 292 287 281 281 286 284 275 265 256 252 251 250 248 245 243 240 239 240 239 239 237 237 238 239 240 239 240 240 240 242 245 247 247 247 249 251 254 258 261 264 269 275 279 280 275 268 264 260 260 268 272 271 268 265
181 153 193 233 189 233 268 270 283 287 283 271 287 306 302 307 310 294 300 321 307 288 293 295 300 313 321 327 330 328 326 324 318 310 303 301 300 298 296 296 297 297 295 289 285 282 281 285 287 280 270 257 250 250 250 250 248 246 243 240 241 242 243 240 238 239 239 240 240 241 243 244 247 248 250 249 247 248 251 255 260 263 266 271 276 277 278 276 269 265 263 261 264 270 270 267 264
174 213 237 244 189 237 278 286 295 293 290 283 293 305 301 307 303 287 285 270 269 288 299 301 301 307 314 322 330 332 333 335 333 324 315 309 305 301 299 299 297 294 290 288 289 287 282 283 285 281 276 265 254 251 250 252 251 249 247 243 242 243 246 246 241 241 242 242 242 243 244 245 249 251 251 252 251 251 253 258 264 266 269 273 274 274 275 274 272 266 263 259 258 265 268 266 264
218 260 257 260 250 251 279 289 291 290 291 290 293 294 297 304 296 290 273 255 271 289 300 303 303 307 317 327 336 347 355 352 346 337 325 315 307 301 297 294 292 289 286 285 285 281 278 276 278 280 280 275 265 257 252 251 251 251 251 248 244 242 244 248 247 244 245 245 244 245 247 247 249 253 253 253 255 256 257 261 267 273 276 277 277 279 279 274 272 269 264 259 253 259 265 264 263
212 274 274 272 269 264 280 291 292 290 287 286 290 289 290 284 287 297 282 275 283 294 301 308 309 314 328 342 354 8 6 354 345 338 328 316 307 299 291 288 289 290 287 283 279 275 271 268 269 276 280 281 275 266 258 254 253 253 253 252 250 245 242 246 251 249 246 250 251 249 248 250 252 255 256 255 258 260 261 264 269 275 278 281 283 288 289 283 276 271 266 261 253 254 261 264 263
194 247 277 288 287 285 292 296 292 292 289 291 293 281 277 275 279 283 282 288 296 296 299 316 321 327 343 355 357 360 354 347 341 331 324 314 305 297 289 286 288 291 290 285 279 274 270 265 263 269 277 283 281 273 268 263 259 257 256 255 254 251 246 244 250 253 248 245 252 257 255 255 256 258 259 259 261 263 265 268 271 274 279 283 287 294 296 292 285 277 270 262 255 251 256 262 264
208 230 277 298 297 298 300 293 289 291 290 293 291 280 283 287 287 272 277 294 315 290 291 313 324 334 345 351 345 345 341 338 331 322 319 309 299 292 287 285 285 285 286 283 278 273 269 265 263 265 271 278 279 275 273 273 269 266 262 261 259 256 253 245 244 251 254 246 244 253 260 262 263 263 262 262 263 266 269 271 274 277 281 285 290 298 303 299 290 281 275 268 259 251 252 258 262
278 293 290 283 291 298 297 288 288 292 290 284 262 271 285 283 191 264 276 295 302 296 304 308 325 340 344 344 335 335 332 328 322 315 310 300 293 288 285 285 287 284 280 279 278 274 267 263 263 262 265 271 275 275 274 276 278 278 275 269 264 261 258 252 244 244 252 256 250 250 258 264 267 268 267 267 266 267 270 273 278 281 284 288 292 299 306 304 294 284 280 274 264 253 248 251 256
314 330 309 292 305 304 292 285 289 295 294 279 232 254 288 262 178 255 276 297 303 306 319 326 347 355 343 336 326 322 320 319 316 310 307 304 304 304 300 298 297 292 282 274 274 273 263 259 254 246 254 266 272 274 271 274 282 286 285 279 273 268 263 256 250 243 243 252 257 256 259 263 266 268 270 271 270 269 271 275 280 284 287 289 290 295 302 303 298 290 285 281 272 260 250 248 252
317 336 319 303 336 317 290 284 286 282 263 273 200 277 309 224 218 260 286 301 309 316 329 346 2 359 342 324 310 306 305 306 306 306 315 328 330 327 318 310 307 303 290 272 265 260 252 249 240 227 229 242 255 265 264 267 278 287 290 288 283 277 273 265 259 253 245 247 255 257 258 259 261 262 263 267 270 269 271 275 281 284 285 285 287 292 299 302 303 300 296 290 281 270 258 252 252
308 336 12 308 351 320 285 279 253 305 271 239 147 285 296 260 251 276 303 310 321 327 337 352 358 353 332 292 283 285 287 289 298 314 340 1 1 353 337 326 322 316 302 276 258 247 239 237 231 223 219 221 225 235 243 250 260 275 288 293 291 282 276 274 271 265 255 251 257 262 262 261 262 264 264 264 265 267 273 278 283 289 291 291 291 294 298 303 307 309 307 302 292 281 270 261 256
301 323 25 333 337 276 290 314 249 316 305 202 153 220 266 272 280 297 316 320 328 330 340 354 353 346 286 232 222 268 289 299 309 7 31 33 35 22 12 1 349 340 317 280 249 233 229 228 226 223 219 217 216 216 224 237 246 257 270 281 288 292 287 282 281 277 275 271 266 268 270 270 270 271 271 270 270 270 273 275 281 293 299 297 296 297 298 302 308 311 311 308 302 292 283 275 266
19 304 304 327 199 262 306 306 220 218 300 152 144 221 269 272 288 304 313 319 328 333 345 359 351 349 174 162 126 107 88 90 93 89 66 52 49 34 32 22 13 9 348 328 242 217 220 221 222 225 225 222 219 213 211 223 237 246 258 270 275 282 284 278 275 270 270 273 270 268 271 273 275 277 277 277 277 276 275 277 285 294 296 295 295 296 297 300 305 307 307 308 306 299 290 284 279
357 222 255 273 228 263 317 313 204 185 269 85 155 248 283 276 291 298 304 321 333 340 348 7 118 122 116 108 104 104 101 104 97 84 67 52 42 35 33 24 21 17 12 20 321 244 231 225 223 226 227 225 221 214 207 207 221 235 246 257 260 259 264 265 268 265 263 266 268 269 270 270 272 276 277 277 277 276 278 284 289 291 292 292 292 292 295 298 301 302 303 305 305 301 293 286 284
312 337 235 251 232 238 293 304 324 83 89 9 270 217 258 274 286 288 296 329 341 351 16 110 117 101 97 96 95 95 89 86 74 63 57 48 42 38 35 33 30 21 14 1 323 287 260 246 231 228 222 220 219 212 204 195 198 213 226 236 245 251 257 260 263 265 266 266 266 268 268 268 268 269 271 272 275 279 283 285 286 286 286 287 289 289 291 293 296 299 299 301 303 302 297 291 289
225 221 227 256 246 240 254 269 305 15 20 310 284 247 261 277 280 284 303 342 352 17 94 115 104 95 94 91 86 82 77 71 62 58 60 59 58 55 54 57 51 46 46 39 32 18 356 14 12 330 231 214 217 211 201 192 185 186 196 215 228 233 242 249 254 257 262 265 267 269 268 267 266 266 267 268 270 274 278 280 280 281 281 282 284 286 289 291 294 295 294 296 299 298 296 295 294
210 219 209 225 242 253 246 253 271 330 334 293 271 264 268 275 275 296 328 353 16 67 102 97 91 91 88 85 80 77 75 70 64 65 74 79 81 80 79 77 73 75 76 74 67 47 37 28 12 17 54 88 187 200 187 184 178 172 178 198 213 219 227 240 249 252 256 260 264 267 267 267 267 268 267 268 268 270 274 278 280 282 282 281 282 284 287 289 290 289 289 292 294 292 292 293 295
203 212 222 226 234 264 265 269 276 223 276 274 263 271 276 271 278 332 354 6 32 67 92 85 84 86 82 82 79 75 75 72 72 78 87 92 95 94 91 88 86 85 84 86 87 80 72 62 54 62 67 73 99 123 138 172 178 179 192 203 214 226 236 248 252 253 256 257 259 261 264 267 268 269 269 267 265 264 268 273 277 280 281 282 282 283 285 285 285 286 288 291 291 290 290 290 291
229 215 252 263 238 260 267 269 285 203 177 260 305 318 280 272 297 3 18 35 35 55 84 81 83 85 81 83 80 80 83 84 88 90 94 100 102 104 103 99 94 87 85 86 85 84 84 84 81 79 79 81 83 83 80 81 94 119 174 208 230 239 241 248 251 253 257 258 260 263 265 265 265 267 267 266 264 261 259 259 262 265 267 269 271 274 277 279 282 284 286 288 289 289 289 288 287
232 209 232 263 245 280 285 280 312 27 174 260 324 289 274 287 46 37 41 63 57 67 85 83 85 84 81 82 82 86 89 88 91 91 94 98 100 102 99 94 90 87 86 86 85 85 85 84 84 83 84 84 84 84 83 81 80 79 78 80 77 76 239 253 260 262 263 263 266 268 269 269 267 266 267 267 265 263 260 258 259 260 261 262 263 265 268 270 273 275 277 280 284 287 287 287 287
207 181 186 250 249 314 280 283 332 3 191 265 247 239 275 292 90 64 57 77 75 76 84 82 82 82 81 85 86 87 88 86 87 88 91 94 96 96 94 92 91 89 87 85 83 82 82 82 82 83 83 83 85 85 83 82 81 80 79 77 75 74 73 69 53 4 306 293 284 278 276 273 270 269 268 269 268 267 265 263 262 263 263 263 264 265 266 268 270 271 272 273 277 282 284 286 287
236 208 202 233 240 222 229 275 334 342 355 5 2 315 295 270 155 105 76 79 73 71 78 76 77 86 91 93 92 90 89 88 88 88 90 91 92 91 90 90 89 87 83 81 80 78 78 78 78 77 78 78 79 79 80 81 81 81 80 79 78 76 76 75 74 71 59 42 26 347 315 294 285 279 274 272 272 272 272 270 269 268 268 268 267 267 267 268 268 269 270 271 272 276 280 282 282
274 231 210 218 229 227 233 303 358 2 333 344 23 345 292 313 325 169 120 67 58 62 67 70 76 89 95 95 94 95 94 93 91 90 90 90 89 88 86 84 82 80 78 77 78 78 77 77 76 75 74 74 74 74 75 75 76 77 77 78 79 78 79 79 76 72 65 58 52 41 25 345 314 298 289 285 281 279 278 277 277 276 275 274 274 273 272 271 269 268 268 268 268 270 273 275 275
278 246 207 211 218 215 217 190 104 193 257 295 32 252 265 316 317 192 142 87 72 59 55 66 79 88 94 96 98 100 99 98 96 94 92 90 88 85 82 79 77 76 76 76 76 76 75 74 73 72 71 71 71 72 73 71 69 69 68 69 71 71 71 71 69 64 57 52 44 36 30 23 14 359 340 327 313 305 300 295 292 289 286 284 282 280 278 277 276 273 270 268 266 266 267 269 271
247 254 156 166 184 188 189 166 169 226 255 320 1 150 258 292 280 210 132 105 74 60 53 60 78 90 98 104 106 105 103 101 100 96 92 89 85 82 79 76 75 75 75 74 72 71 69 68 67 67 67 68 69 70 70 67 64 63 62 61 62 63 63 64 63 59 56 52 47 42 38 35 33 30 26 20 14 7 355 340 327 314 305 299 295 291 288 285 283 281 278 275 271 267 265 267 268
244 213 110 129 153 154 141 130 158 303 17 306 301 111 270 266 269 345 113 123 87 108 124 82 96 108 110 114 114 110 107 104 100 96 92 87 84 81 78 77 75 74 72 68 66 65 64 62 61 62 64 66 68 68 66 66 65 63 62 60 60 63 64 65 65 64 62 58 55 53 48 44 37 32 29 23 18 16 11 7 359 346 333 322 313 306 300 296 291 288 284 281 278 274 271 269 269
217 132 94 70 73 79 78 103 111 36 21 250 233 185 221 268 280 309 146 183 200 170 170 158 136 132 127 124 119 114 111 107 102 97 93 88 85 82 79 77 74 71 68 65 64 64 61 60 56 55 62 65 67 67 64 67 68 65 65 64 65 68 68 66 64 61 58 52 48 45 41 37 30 25 21 15 10 6 1 357 353 348 342 335 328 320 312 306 302 298 293 288 283 279 275 271 270
133 109 66 37 33 40 39 58 83 46 275 245 223 197 189 268 286 225 179 213 186 161 162 180 167 157 147 134 127 121 116 111 106 100 96 91 88 85 80 76 72 69 67 64 62 60 58 57 51 51 60 64 65 65 62 66 68 66 66 65 65 65 61 56 49 43 39 33 28 27 25 21 18 16 11 6 2 359 356 351 347 343 339 334 329 325 321 316 312 309 306 303 298 292 285 279 274
114 94 67 50 339 11 25 356 42 169 254 266 257 206 174 228 265 234 250 298 204 170 168 176 175 169 159 143 135 129 122 117 111 105 100 96 92 88 82 76 72 69 66 61 59 57 54 55 50 48 57 61 60 58 58 61 62 62 60 56 51 46 38 31 26 23 21 17 16 17 14 10 9 8 2 359 357 354 353 349 345 341 336 333 331 327 325 321 318 316 314 312 310 305 299 293 287
99 104 96 90 320 352 348 307 299 231 252 279 290 161 181 236 240 243 277 303 284 211 175 168 168 166 161 150 142 136 129 123 117 111 107 103 99 92 84 78 73 68 62 58 56 53 51 53 50 45 52 57 54 50 52 54 54 52 48 40 35 30 23 19 17 15 13 11 9 7 5 3 2 360 357 357 356 353 351 348 344 340 336 334 332 329 327 324 321 319 317 316 315 311 306 301 297
147 149 135 140 150 189 270 269 270 273 272 285 268 182 270 269 266 270 271 296 299 210 169 164 162 159 156 151 147 142 136 131 125 121 117 112 106 96 87 81 75 66 61 56 52 51 48 49 47 44 52 57 52 48 49 50 48 46 41 35 31 27 22 19 16 14 11 9 7 4 1 1 360 360 360 359 359 357 354 352 348 344 340 336 332 328 325 323 322 320 319 319 318 315 312 311 308
178 160 135 151 158 174 226 222 219 266 285 294 279 218 211 223 282 291 277 338 48 144 155 159 159 157 155 153 152 148 144 141 136 133 128 119 110 99 88 80 74 65 62 58 54 57 53 51 53 53 61 66 60 55 51 49 47 44 39 36 32 28 24 20 17 15 11 6 4 360 356 354 353 353 352 351 350 348 347 347 345 343 341 337 333 328 323 320 318 317 316 316 315 314 314 315 314
206 124 111 169 181 169 216 209 176 191 292 290 217 222 218 186 283 320 6 62 87 130 149 157 161 161 160 160 158 154 153 151 148 142 134 124 115 104 88 79 74 64 62 61 59 65 62 62 68 68 69 70 62 54 47 44 43 38 34 30 26 24 19 14 12 9 5 1 357 352 348 344 341 339 337 336 335 334 334 335 336 336 337 336 335 332 328 324 319 316 313 311 310 309 310 313 313
164 123 183 219 174 132 134 264 91 91 262 267 192 228 285 295 329 345 34 73 95 132 154 163 166 166 168 168 164 162 162 160 156 150 141 133 125 112 93 81 77 65 62 61 61 71 74 76 82 79 74 69 57 50 45 43 40 32 26 22 16 11 6 2 2 360 357 354 350 345 341 337 333 330 327 326 324 323 323 323 324 326 327 329 330 331 330 329 327 324 321 316 311 308 306 308 309
122 172 216 205 134 94 99 242 334 34 246 269 192 200 244 244 255 341 41 148 175 189 183 176 175 176 179 177 171 170 169 165 164 160 155 149 141 133 118 102 107 94 82 84 89 94 99 103 105 98 88 75 58 50 44 38 32 22 14 10 2 357 354 352 350 348 345 342 339 335 333 329 327 325 322 319 316 315 314 314 314 315 316 318 320 322 323 323 324 325 324 323 319 314 309 307 306
122 177 190 122 151 172 96 172 229 239 247 276 279 232 224 208 202 194 195 195 194 200 199 192 190 190 191 185 179 177 174 172 173 171 171 166 160 168 175 183 189 155 133 131 125 120 118 114 102 88 69 54 45 37 32 23 16 10 2 358 354 350 350 347 346 344 341 339 336 333 331 328 326 323 320 317 315 313 311 308 307 306 306 307 308 311 313 314 316 317 319 320 319 318 315 312 310
69 97 34 58 159 174 155 158 182 202 239 268 279 282 262 228 197 182 196 195 182 186 195 198 198 195 192 187 183 183 180 180 181 182 186 182 176 195 204 196 190 167 153 145 135 125 112 94 69 54 39 32 28 20 19 15 10 8 3 360 356 352 350 348 346 344 342 340 338 336 333 331 328 326 324 322 320 318 316 313 310 308 306 304 303 303 304 305 306 308 310 311 312 313 312 312 311
125 163 228 273 158 142 226 240 136 152 200 236 268 273 262 247 194 183 196 189 180 187 185 185 197 196 192 189 187 188 186 187 191 192 196 197 194 204 202 187 177 166 154 139 123 106 86 66 49 41 30 23 19 13 10 9 5 3 359 354 351 347 345 342 340 338 337 336 334 332 330 327 326 325 323 321 320 319 318 316 313 312 310 309 307 306 305 304 303 302 303 304 305 306 306 306 307
159 185 203 197 171 136 248 256 214 144 203 197 241 267 267 252 202 193 192 181 184 186 174 178 196 196 194 194 194 197 198 197 200 202 205 208 204 197 190 182 177 170 161 147 123 95 73 57 42 33 24 14 7 1 358 354 350 346 342 338 334 332 330 328 328 328 327 327 327 326 325 323 323 322 321 320 319 318 317 315 313 311 311 310 309 309 308 307 305 304 303 302 302 303 303 302 302